Weather History for St. Joseph, MO

Change the Weather History Date:

Sunday, November 11, 2012

  Actual Average Record
Temperature  
Mean Temperature 48 °F 44 °F  
Max Temperature 69 °F 55 °F 78 °F (1989)
Min Temperature 27 °F 33 °F 5 °F (1986)
Degree Days  
Heating Degree Days 17 21  
Month to date heating degree days 156 204  
Since 1 July heating degree days 657 623  
Cooling Degree Days 0 0  
Month to date cooling degree days 5 0  
Year to date cooling degree days 1565 1220  
Moisture  
Dew Point 37 °F    
Average Humidity 73    
Maximum Humidity 93    
Minimum Humidity 53    
Precipitation  
Precipitation 1.60 in 0.05 in 2.27 in (1922)
Month to date precipitation 1.79 0.75  
Year to date precipitation 22.31 33.28  
Sea Level Pressure  
Sea Level Pressure 29.87 in    
Wind  
Wind Speed 13 mph (WNW)    
Max Wind Speed 36 mph    
Max Gust Speed 47 mph    
Visibility 7 miles    
Events Rain , Snow , Thunderstorm    
T = Trace of Precipitation, MM = Missing Value Source: NWS Daily Summary

Daily Weather History Graph

Daily Weather History Graph

Search for Another Location

Airport:

Trip Planner

Search our weather history database for the weather conditions in past years. The results will help you decide how hot, cold, wet, or windy it might be!

Date:

Astronomy

Nov. 11, 2012 Rise Set
Actual Time 7:00 AM CST 5:06 PM CST
Civil Twilight 6:31 AM CST 5:35 PM CST
Nautical Twilight 5:59 AM CST 6:07 PM CST
Astronomical Twilight 5:27 AM CST 6:39 PM CST
Moon 4:15 AM CST (11/11) 3:30 PM CST (11/11)
Length of Visible Light 11h 03m
Length of Day
10h 06m
Waning Crescent, 7% of the Moon is Illuminated
Nov 11
Waning Crescent
Nov 13
New
Nov 20
First Quarter
Nov 28
Full
Dec 6
Last Quarter

Hourly Weather History & Observations

Time (CST) Temp. Windchill Dew Point Humidity Pressure Visibility Wind Dir Wind Speed Gust Speed Precip Events Conditions
12:24 AM 60.8 °F - 53.6 °F 77% 29.73 in 9.0 mi West 17.3 mph 33.4 mph 0.02 in Rain Light Rain
12:53 AM 59.0 °F - 54.0 °F 83% 29.74 in 7.0 mi SW 16.1 mph - 0.06 in Rain Rain
1:13 AM 57.2 °F - 53.6 °F 88% 29.76 in 3.0 mi SSW 13.8 mph - 0.13 in Rain , Thunderstorm Heavy Rain
1:28 AM 57.2 °F - 55.4 °F 94% 29.72 in 4.0 mi SSW 8.1 mph - 0.22 in Rain Heavy Rain
1:53 AM 57.0 °F - 55.0 °F 93% 29.68 in 6.0 mi SSE 6.9 mph - 0.26 in Rain Light Rain
2:53 AM 57.0 °F - 55.0 °F 93% 29.66 in 4.0 mi WNW 6.9 mph - 0.05 in Rain Rain
3:00 AM 57.2 °F - 55.4 °F 94% 29.68 in 4.0 mi Calm Calm - 0.01 in Rain , Thunderstorm Light Rain
3:09 AM 57.2 °F - 55.4 °F 94% 29.70 in 1.8 mi WSW 16.1 mph 25.3 mph 0.15 in Rain , Thunderstorm Heavy Thunderstorms and Rain
3:21 AM 57.2 °F - 55.4 °F 94% 29.69 in 3.0 mi SSW 10.4 mph - 0.25 in Rain , Thunderstorm Thunderstorms and Rain
3:33 AM 57.2 °F - 55.4 °F 94% 29.67 in 2.0 mi South 8.1 mph - 0.41 in Rain , Thunderstorm Heavy Rain
3:38 AM 57.2 °F - 55.4 °F 94% 29.68 in 3.0 mi South 6.9 mph - 0.42 in Rain , Thunderstorm Rain
3:53 AM 57.9 °F - 55.9 °F 93% 29.67 in 4.0 mi SSW 10.4 mph - 0.48 in Rain Rain
4:21 AM 57.2 °F - 55.4 °F 94% 29.66 in 4.0 mi SW 4.6 mph - 0.08 in Rain Rain
4:35 AM 51.8 °F - 48.2 °F 88% 29.66 in 5.0 mi NNW 18.4 mph 26.5 mph 0.12 in Rain Light Rain
4:44 AM 46.4 °F 39.5 °F 44.6 °F 93% 29.70 in 10.0 mi WNW 17.3 mph 27.6 mph 0.12 in Rain Light Rain
4:53 AM 46.9 °F - 44.1 °F 90% 29.66 in 10.0 mi NNW 19.6 mph 26.5 mph 0.13 in Rain Light Rain
5:53 AM 41.0 °F 32.8 °F 39.0 °F 93% 29.78 in 6.0 mi NW 16.1 mph 23.0 mph 0.19 in Rain Rain
6:27 AM 39.2 °F 31.6 °F 37.4 °F 93% 29.79 in 5.0 mi NNW 12.7 mph 23.0 mph 0.14 in Rain Rain
6:30 AM 39.2 °F 30.8 °F 37.4 °F 93% 29.80 in 6.0 mi NNW 15.0 mph - 0.15 in Rain Rain
6:42 AM 39.2 °F 30.8 °F 35.6 °F 87% 29.78 in 8.0 mi NNW 15.0 mph - 0.17 in Rain Light Rain
6:53 AM 39.0 °F 30.6 °F 36.0 °F 89% 29.79 in 8.0 mi NNW 15.0 mph - 0.19 in Rain Light Rain
7:00 AM 39.2 °F 30.8 °F 35.6 °F 87% 29.80 in 10.0 mi NNW 15.0 mph - 0.00 in Rain Light Rain
7:25 AM 37.4 °F 30.3 °F 35.6 °F 93% 29.80 in 8.0 mi NNW 10.4 mph - 0.03 in Rain Light Rain
8:53 AM 36.0 °F 28.0 °F 33.1 °F 89% 29.87 in 5.0 mi NW 11.5 mph - 0.03 in Snow Light Snow
9:53 AM 33.1 °F 22.6 °F 30.9 °F 92% 29.89 in 7.0 mi NW 16.1 mph - 0.09 in Snow Light Snow
10:15 AM 33.8 °F 22.2 °F 30.2 °F 87% 29.88 in 3.0 mi NW 20.7 mph 25.3 mph 0.04 in Snow Light Snow
10:53 AM 32.0 °F 21.6 °F 30.0 °F 92% 29.94 in 8.0 mi NW 15.0 mph - 0.04 in   Overcast
11:53 AM 30.9 °F 18.7 °F 28.9 °F 92% 29.96 in 9.0 mi NW 19.6 mph - 0.00 in Snow Light Snow
12:53 PM 30.9 °F 18.4 °F 27.0 °F 85% 29.96 in 9.0 mi NW 20.7 mph - 0.00 in Snow Light Snow
1:09 PM 32.0 °F 20.8 °F 26.6 °F 80% 29.95 in 9.0 mi NNW 17.3 mph 24.2 mph 0.00 in Snow Light Snow
1:53 PM 32.0 °F 19.8 °F 25.0 °F 75% 29.98 in 9.0 mi NW 20.7 mph 26.5 mph 0.00 in Snow Light Snow
2:39 PM 32.0 °F 22.1 °F 24.8 °F 75% 29.99 in 9.0 mi NNW 13.8 mph 24.2 mph 0.00 in Snow Light Snow
2:53 PM 32.0 °F 22.5 °F 25.0 °F 75% 30.00 in 9.0 mi NW 12.7 mph - 0.00 in Snow Light Snow
3:53 PM 34.0 °F 24.6 °F 25.0 °F 70% 30.03 in 9.0 mi NW 13.8 mph - 0.00 in   Mostly Cloudy
4:34 PM 33.8 °F 24.3 °F 24.8 °F 70% 30.05 in 9.0 mi WNW 13.8 mph - 0.00 in   Scattered Clouds
4:53 PM 34.0 °F 23.4 °F 24.1 °F 67% 30.06 in 9.0 mi NW 17.3 mph 23.0 mph 0.00 in Snow Light Snow
5:53 PM 32.0 °F 23.6 °F 21.9 °F 66% 30.11 in 10.0 mi NW 10.4 mph - 0.00 in Snow Light Snow
6:53 PM 30.9 °F 22.8 °F 21.0 °F 67% 30.15 in 9.0 mi NW 9.2 mph - 0.00 in   Clear
7:53 PM 30.0 °F 21.7 °F 19.9 °F 66% 30.18 in 10.0 mi NW 9.2 mph - N/A   Clear
8:53 PM 28.9 °F 21.1 °F 19.0 °F 67% 30.20 in 10.0 mi NW 8.1 mph - N/A   Clear
9:53 PM 28.0 °F 21.7 °F 19.0 °F 69% 30.23 in 10.0 mi West 5.8 mph - N/A   Clear
10:53 PM 28.0 °F 21.7 °F 19.0 °F 69% 30.24 in 10.0 mi WSW 5.8 mph - N/A   Clear
11:53 PM 27.0 °F 18.7 °F 18.0 °F 69% 30.25 in 10.0 mi West 8.1 mph - N/A   Clear